TimeCST,TemperatureF,Dew PointF,Humidity,Sea Level PressureIn,VisibilityMPH,Wind Direction,Wind SpeedMPH,Gust SpeedMPH,PrecipitationIn,Events,Conditions,WindDirDegrees,DateUTC
12:08 AM,60.8,59.0,94,30.12,7.0,SE,4.6,-,N/A,,Overcast,130,2013-12-21 06:08:00
12:33 AM,60.8,60.8,100,30.11,8.0,ESE,3.5,-,N/A,,Overcast,120,2013-12-21 06:33:00
12:53 AM,61.0,59.0,93,30.09,8.0,ESE,4.6,-,N/A,,Overcast,120,2013-12-21 06:53:00
1:15 AM,60.8,59.0,94,30.10,8.0,SE,6.9,-,N/A,,Mostly Cloudy,130,2013-12-21 07:15:00
1:49 AM,60.8,60.8,100,30.10,7.0,SE,5.8,-,0.00,,Overcast,130,2013-12-21 07:49:00
1:53 AM,61.0,60.1,97,30.09,7.0,SE,5.8,-,0.00,,Overcast,130,2013-12-21 07:53:00
2:53 AM,61.0,60.1,97,30.06,9.0,SE,6.9,-,N/A,,Scattered Clouds,140,2013-12-21 08:53:00
3:53 AM,62.1,60.1,93,30.06,10.0,SE,9.2,-,N/A,,Overcast,140,2013-12-21 09:53:00
4:53 AM,62.1,60.1,93,30.05,10.0,SSE,8.1,-,N/A,,Overcast,150,2013-12-21 10:53:00
5:53 AM,64.0,60.1,87,30.05,10.0,SSE,10.4,-,N/A,,Overcast,150,2013-12-21 11:53:00
6:53 AM,66.0,62.1,87,30.04,10.0,SSE,15.0,-,N/A,,Overcast,160,2013-12-21 12:53:00
7:53 AM,68.0,64.0,87,30.05,10.0,SSE,17.3,-,N/A,,Mostly Cloudy,160,2013-12-21 13:53:00
8:02 AM,68.0,64.4,88,30.06,10.0,SSE,15.0,25.3,N/A,,Overcast,160,2013-12-21 14:02:00
8:53 AM,70.0,64.9,84,30.06,10.0,South,17.3,24.2,N/A,,Mostly Cloudy,170,2013-12-21 14:53:00
9:53 AM,73.0,64.9,76,30.04,10.0,South,19.6,27.6,N/A,,Overcast,180,2013-12-21 15:53:00
10:53 AM,73.9,66.0,76,30.02,10.0,South,16.1,28.8,N/A,,Overcast,180,2013-12-21 16:53:00
11:53 AM,75.9,66.0,71,29.99,10.0,South,20.7,28.8,N/A,,Overcast,170,2013-12-21 17:53:00
12:27 PM,77.0,66.2,69,29.99,10.0,South,12.7,23.0,N/A,,Overcast,180,2013-12-21 18:27:00
12:53 PM,77.0,66.0,69,29.97,10.0,South,16.1,24.2,N/A,,Overcast,180,2013-12-21 18:53:00
1:53 PM,78.1,66.0,66,29.96,10.0,South,17.3,25.3,N/A,,Overcast,190,2013-12-21 19:53:00
2:53 PM,77.0,66.0,69,29.97,10.0,South,13.8,25.3,N/A,,Overcast,180,2013-12-21 20:53:00
3:19 PM,75.2,66.2,73,29.98,10.0,SSE,12.7,-,0.00,Rain,Light Rain,160,2013-12-21 21:19:00
3:53 PM,75.0,66.9,76,29.98,10.0,SSE,13.8,-,0.00,,Mostly Cloudy,160,2013-12-21 21:53:00
4:15 PM,73.4,66.2,78,29.99,10.0,SSE,11.5,21.9,N/A,,Overcast,160,2013-12-21 22:15:00
4:53 PM,73.0,66.9,81,29.98,10.0,SSE,13.8,-,N/A,,Overcast,160,2013-12-21 22:53:00
5:22 PM,73.4,66.2,78,30.00,10.0,SSE,13.8,-,N/A,,Overcast,160,2013-12-21 23:22:00
5:53 PM,72.0,66.9,84,29.99,10.0,SSE,13.8,21.9,N/A,,Overcast,160,2013-12-21 23:53:00
6:53 PM,72.0,68.0,87,30.00,10.0,SSE,16.1,25.3,N/A,,Overcast,160,2013-12-22 00:53:00
7:26 PM,71.6,68.0,88,30.01,10.0,SSE,16.1,23.0,N/A,,Overcast,160,2013-12-22 01:26:00
7:53 PM,72.0,68.0,87,30.00,10.0,South,17.3,-,N/A,,Overcast,170,2013-12-22 01:53:00
8:53 PM,72.0,68.0,87,30.01,10.0,South,15.0,-,N/A,,Overcast,170,2013-12-22 02:53:00
9:24 PM,71.6,68.0,88,30.04,10.0,South,12.7,-,N/A,,Overcast,170,2013-12-22 03:24:00
9:53 PM,72.0,68.0,87,30.01,10.0,South,11.5,-,N/A,,Overcast,170,2013-12-22 03:53:00
10:38 PM,71.6,68.0,88,30.03,10.0,South,13.8,-,N/A,,Overcast,170,2013-12-22 04:38:00
10:53 PM,72.0,68.0,87,30.00,10.0,South,13.8,-,N/A,,Overcast,170,2013-12-22 04:53:00
11:12 PM,71.6,68.0,88,29.99,10.0,South,17.3,-,N/A,,Overcast,170,2013-12-22 05:12:00
11:53 PM,72.0,68.0,87,29.97,10.0,South,17.3,-,N/A,,Overcast,170,2013-12-22 05:53:00